Mt. Pocono, PA

4:54 AM EST on December 07, 2019 (GMT -0500)
Pocono Mountains Municipal

Weather History for KMPO - October, 2019

Change the Weather History Date:

Thursday, October 10, 2019

  Actual Average Record
Temperature  
Mean Temperature 56 °F 50 °F  
Max Temperature 66 °F 59 °F 86 °F (1949)
Min Temperature 46 °F 41 °F 20 °F (1929)
Degree Days  
Heating Degree Days 8 15  
Month to date heating degree days 108 138  
Since 1 July heating degree days 286 406  
Cooling Degree Days 0 0  
Month to date cooling degree days 5 0  
Year to date cooling degree days 348 313  
Growing Degree Days 6 (Base 50)    
Moisture  
Dew Point 41 °F    
Average Humidity 61    
Maximum Humidity 80    
Minimum Humidity 40    
Precipitation  
Precipitation 0.00 in 0.13 in 1.41 in (1992)
Month to date precipitation 1.39 1.51  
Year to date precipitation 37.61 37.85  
Sea Level Pressure  
Sea Level Pressure 30.26 in    
Wind  
Wind Speed 7 mph ()    
Max Wind Speed 18 mph    
Max Gust Speed 23 mph    
Visibility 10.0 miles    
Events      
T = Trace of Precipitation, MM = Missing Value Source: Averaged Metar Reports

Daily Weather History Graph

Daily Weather History Graph

Search for Another Location

Airport or City:

Astronomy

Oct. 10, 2019 Rise Set
Actual Time 7:07 AM EDT 6:29 PM EDT
Civil Twilight 6:39 AM EDT 6:56 PM EDT
Nautical Twilight 6:07 AM EDT 7:28 PM EDT
Astronomical Twilight 5:35 AM EDT 8:00 PM EDT
Moon 5:31 PM EDT (10/10) 3:46 AM EDT (10/10)
Length of Visible Light 12h 16m
Length of Day
11h 21m
Waxing Gibbous, 91% of the Moon is Illuminated
Oct 10
Waxing Gibbous
Oct 13
Full
Oct 21
Last Quarter
Oct 27
New
Nov 4
First Quarter

Hourly Weather History & Observations

Time (EDT) Temp. Dew Point Humidity Pressure Visibility Wind Dir Wind Speed Gust Speed Precip Events Conditions
12:53 AM 46.9 °F 39.0 °F 74% 30.30 in 10.0 mi NE 8.1 mph 18.4 mph N/A   Overcast
1:53 AM 46.9 °F 39.9 °F 77% 30.30 in 10.0 mi NE 5.8 mph - N/A   Overcast
2:53 AM 46.9 °F 39.9 °F 77% 30.29 in 10.0 mi NE 6.9 mph - N/A   Overcast
3:53 AM 46.9 °F 39.9 °F 77% 30.28 in 10.0 mi NE 9.2 mph - N/A   Overcast
4:53 AM 48.0 °F 39.9 °F 74% 30.28 in 10.0 mi NNE 8.1 mph - N/A   Overcast
5:53 AM 48.0 °F 41.0 °F 77% 30.28 in 10.0 mi NNE 5.8 mph - N/A   Overcast
6:53 AM 48.0 °F 42.1 °F 80% 30.29 in 10.0 mi NNE 6.9 mph - N/A   Overcast
7:53 AM 48.9 °F 42.1 °F 77% 30.30 in 10.0 mi NNE 9.2 mph - N/A   Overcast
8:53 AM 52.0 °F 44.1 °F 74% 30.30 in 10.0 mi NNE 8.1 mph - N/A   Overcast
9:53 AM 54.0 °F 45.0 °F 72% 30.30 in 10.0 mi North 6.9 mph - N/A   Overcast
10:53 AM 57.0 °F 46.0 °F 67% 30.29 in 10.0 mi North 10.4 mph - N/A   Mostly Cloudy
11:53 AM 61.0 °F 46.0 °F 58% 30.28 in 10.0 mi North 8.1 mph - N/A   Clear
12:53 PM 64.0 °F 45.0 °F 50% 30.26 in 10.0 mi NNE 11.5 mph - N/A   Clear
1:53 PM 66.0 °F 48.0 °F 52% 30.24 in 10.0 mi NNE 11.5 mph - N/A   Clear
2:53 PM 66.0 °F 48.9 °F 54% 30.24 in 10.0 mi North 13.8 mph - N/A   Clear
3:53 PM 66.0 °F 48.0 °F 52% 30.23 in 10.0 mi NNW 16.1 mph - N/A   Partly Cloudy
4:53 PM 66.0 °F 44.1 °F 45% 30.22 in 10.0 mi NNE 9.2 mph - N/A   Clear
5:53 PM 64.0 °F 42.1 °F 45% 30.23 in 10.0 mi NNE 8.1 mph - N/A   Clear
6:53 PM 59.0 °F 35.1 °F 41% 30.24 in 10.0 mi NNE 6.9 mph - N/A   Clear
7:53 PM 53.1 °F 35.1 °F 50% 30.24 in 10.0 mi NNE 6.9 mph - N/A   Clear
8:53 PM 55.0 °F 33.1 °F 43% 30.24 in 10.0 mi NE 5.8 mph - N/A   Clear
9:53 PM 54.0 °F 30.0 °F 40% 30.24 in 10.0 mi NNE 5.8 mph - N/A   Clear
10:53 PM 51.1 °F 33.1 °F 50% 30.24 in 10.0 mi North 8.1 mph - N/A   Clear
11:53 PM 51.1 °F 34.0 °F 52% 30.22 in 10.0 mi NNE 11.5 mph - N/A   Clear